Time,TemperatureF,DewpointF,PressureIn,WindDirection,WindDirectionDegrees,WindSpeedMPH,WindSpeedGustMPH,Humidity,HourlyPrecipIn,Conditions,Clouds,dailyrainin,SoftwareType,DateUTC
2013-09-24 00:03:00,51.7,49.4,30.03,NW,320,0.0,0.0,92,0.00,,,0.00,WUHU216DAVISVP2,2013-09-24 04:03:00,
2013-09-24 00:08:00,51.7,49.5,30.03,NW,320,0.0,0.0,92,0.00,,,0.00,WUHU216DAVISVP2,2013-09-24 04:08:00,
2013-09-24 00:13:00,51.7,49.5,30.03,NW,320,0.0,0.0,92,0.00,,,0.00,WUHU216DAVISVP2,2013-09-24 04:13:00,
2013-09-24 00:18:00,51.7,49.5,30.03,NW,320,0.0,0.0,92,0.00,,,0.00,WUHU216DAVISVP2,2013-09-24 04:18:00,
2013-09-24 00:23:00,51.6,49.4,30.03,NW,320,0.0,0.0,92,0.00,,,0.00,WUHU216DAVISVP2,2013-09-24 04:23:00,
2013-09-24 00:28:00,51.5,49.2,30.03,NW,320,0.0,0.0,92,0.00,,,0.00,WUHU216DAVISVP2,2013-09-24 04:28:00,
2013-09-24 00:33:00,51.4,49.1,30.03,NW,320,0.0,0.0,92,0.00,,,0.00,WUHU216DAVISVP2,2013-09-24 04:33:00,
2013-09-24 00:38:00,51.3,49.0,30.03,NW,320,0.0,0.0,92,0.00,,,0.00,WUHU216DAVISVP2,2013-09-24 04:38:00,
2013-09-24 00:43:00,51.2,48.9,30.03,NW,320,0.0,0.0,92,0.00,,,0.00,WUHU216DAVISVP2,2013-09-24 04:43:00,
2013-09-24 00:48:00,51.1,48.8,30.04,NW,320,0.0,0.0,92,0.00,,,0.00,WUHU216DAVISVP2,2013-09-24 04:48:00,
2013-09-24 00:53:00,51.2,49.2,30.04,NW,320,0.0,1.0,93,0.00,,,0.00,WUHU216DAVISVP2,2013-09-24 04:53:00,
2013-09-24 00:58:00,51.1,49.1,30.04,NW,320,0.0,1.0,93,0.00,,,0.00,WUHU216DAVISVP2,2013-09-24 04:58:00,
2013-09-24 01:03:00,51.0,48.7,30.03,NW,320,0.0,1.0,92,0.00,,,0.00,WUHU216DAVISVP2,2013-09-24 05:03:00,
2013-09-24 01:08:00,50.8,48.5,30.04,NW,320,0.0,1.0,92,0.00,,,0.00,WUHU216DAVISVP2,2013-09-24 05:08:00,
2013-09-24 01:13:00,50.7,48.7,30.04,NW,320,0.0,0.0,93,0.00,,,0.00,WUHU216DAVISVP2,2013-09-24 05:13:00,
2013-09-24 01:18:00,50.6,48.6,30.04,NW,320,0.0,0.0,93,0.00,,,0.00,WUHU216DAVISVP2,2013-09-24 05:18:00,
2013-09-24 01:23:00,50.6,48.7,30.04,NW,320,0.0,0.0,93,0.00,,,0.00,WUHU216DAVISVP2,2013-09-24 05:23:00,
2013-09-24 01:28:00,50.6,48.7,30.04,NW,320,0.0,0.0,93,0.00,,,0.00,WUHU216DAVISVP2,2013-09-24 05:28:00,
2013-09-24 01:33:00,50.7,49.0,30.05,NW,320,0.0,0.0,94,0.00,,,0.00,WUHU216DAVISVP2,2013-09-24 05:33:00,
2013-09-24 01:38:00,50.6,48.7,30.05,NW,320,0.0,0.0,93,0.00,,,0.00,WUHU216DAVISVP2,2013-09-24 05:38:00,
2013-09-24 01:43:00,50.6,48.9,30.05,NW,320,0.0,0.0,94,0.00,,,0.00,WUHU216DAVISVP2,2013-09-24 05:43:00,
2013-09-24 01:48:00,50.5,48.8,30.05,NW,320,0.0,0.0,94,0.00,,,0.00,WUHU216DAVISVP2,2013-09-24 05:48:00,
2013-09-24 01:53:00,50.5,48.8,30.05,NW,320,0.0,0.0,94,0.00,,,0.00,WUHU216DAVISVP2,2013-09-24 05:53:00,
2013-09-24 01:58:00,50.5,48.8,30.05,NW,320,0.0,0.0,94,0.00,,,0.00,WUHU216DAVISVP2,2013-09-24 05:58:00,
2013-09-24 02:03:00,50.3,48.6,30.04,NW,320,0.0,1.0,94,0.00,,,0.00,WUHU216DAVISVP2,2013-09-24 06:03:00,
2013-09-24 02:08:00,50.3,48.6,30.04,NW,320,0.0,1.0,94,0.00,,,0.00,WUHU216DAVISVP2,2013-09-24 06:08:00,
2013-09-24 02:13:00,50.3,48.6,30.05,NW,320,0.0,1.0,94,0.00,,,0.00,WUHU216DAVISVP2,2013-09-24 06:13:00,
2013-09-24 02:18:00,50.3,48.6,30.05,NW,320,0.0,1.0,94,0.00,,,0.00,WUHU216DAVISVP2,2013-09-24 06:18:00,
2013-09-24 02:23:00,50.2,48.5,30.04,NW,320,0.0,0.0,94,0.00,,,0.00,WUHU216DAVISVP2,2013-09-24 06:23:00,
2013-09-24 02:28:00,50.1,48.4,30.05,NW,320,0.0,1.0,94,0.00,,,0.00,WUHU216DAVISVP2,2013-09-24 06:28:00,
2013-09-24 02:33:00,49.9,48.2,30.05,NW,320,0.0,1.0,94,0.00,,,0.00,WUHU216DAVISVP2,2013-09-24 06:33:00,
2013-09-24 02:38:00,49.7,48.0,30.05,NW,320,0.0,1.0,94,0.00,,,0.00,WUHU216DAVISVP2,2013-09-24 06:38:00,
2013-09-24 02:43:00,49.6,47.9,30.05,NW,320,0.0,1.0,94,0.00,,,0.00,WUHU216DAVISVP2,2013-09-24 06:43:00,
2013-09-24 02:48:00,49.4,47.7,30.05,NW,320,0.0,1.0,94,0.00,,,0.00,WUHU216DAVISVP2,2013-09-24 06:48:00,
2013-09-24 02:53:00,49.4,47.7,30.05,NW,320,0.0,0.0,94,0.00,,,0.00,WUHU216DAVISVP2,2013-09-24 06:53:00,
2013-09-24 02:58:00,49.3,47.6,30.05,NW,320,0.0,0.0,94,0.00,,,0.00,WUHU216DAVISVP2,2013-09-24 06:58:00,
2013-09-24 03:03:00,49.2,47.5,30.05,NW,320,0.0,0.0,94,0.00,,,0.00,WUHU216DAVISVP2,2013-09-24 07:03:00,
2013-09-24 03:08:00,49.1,47.4,30.05,NW,320,0.0,0.0,94,0.00,,,0.00,WUHU216DAVISVP2,2013-09-24 07:08:00,
2013-09-24 03:13:00,49.0,47.3,30.05,NW,320,0.0,0.0,94,0.00,,,0.00,WUHU216DAVISVP2,2013-09-24 07:13:00,
2013-09-24 03:18:00,49.0,47.3,30.05,NW,320,0.0,0.0,94,0.00,,,0.00,WUHU216DAVISVP2,2013-09-24 07:18:00,
2013-09-24 03:23:00,49.0,47.3,30.05,NW,320,0.0,0.0,94,0.00,,,0.00,WUHU216DAVISVP2,2013-09-24 07:23:00,
2013-09-24 03:28:00,48.9,47.5,30.05,NW,320,0.0,1.0,95,0.00,,,0.00,WUHU216DAVISVP2,2013-09-24 07:28:00,
2013-09-24 03:33:00,48.9,47.5,30.05,NW,320,0.0,1.0,95,0.00,,,0.00,WUHU216DAVISVP2,2013-09-24 07:33:00,
2013-09-24 03:38:00,48.8,47.4,30.05,NW,320,0.0,1.0,95,0.00,,,0.00,WUHU216DAVISVP2,2013-09-24 07:38:00,
2013-09-24 03:43:00,48.6,47.2,30.05,NW,320,0.0,1.0,95,0.00,,,0.00,WUHU216DAVISVP2,2013-09-24 07:43:00,
2013-09-24 03:48:00,48.5,46.9,30.05,NW,320,0.0,1.0,94,0.00,,,0.00,WUHU216DAVISVP2,2013-09-24 07:48:00,
2013-09-24 03:54:00,48.5,47.1,30.04,NW,320,0.0,1.0,95,0.00,,,0.00,WUHU216DAVISVP2,2013-09-24 07:54:00,
2013-09-24 03:59:00,48.4,47.0,30.04,NW,320,0.0,1.0,95,0.00,,,0.00,WUHU216DAVISVP2,2013-09-24 07:59:00,
2013-09-24 04:04:00,48.4,47.0,30.05,NW,320,0.0,1.0,95,0.00,,,0.00,WUHU216DAVISVP2,2013-09-24 08:04:00,
2013-09-24 04:09:00,48.3,46.9,30.05,NW,320,0.0,1.0,95,0.00,,,0.00,WUHU216DAVISVP2,2013-09-24 08:09:00,
2013-09-24 04:14:00,48.3,46.9,30.05,NW,320,0.0,1.0,95,0.00,,,0.00,WUHU216DAVISVP2,2013-09-24 08:14:00,
2013-09-24 04:19:00,48.2,46.8,30.05,NW,320,0.0,1.0,95,0.00,,,0.00,WUHU216DAVISVP2,2013-09-24 08:19:00,
2013-09-24 04:24:00,48.1,46.7,30.05,NW,320,0.0,1.0,95,0.00,,,0.00,WUHU216DAVISVP2,2013-09-24 08:24:00,
2013-09-24 04:29:00,47.9,46.5,30.05,NW,320,0.0,1.0,95,0.00,,,0.00,WUHU216DAVISVP2,2013-09-24 08:29:00,
2013-09-24 04:34:00,47.9,46.5,30.05,NW,320,0.0,1.0,95,0.00,,,0.00,WUHU216DAVISVP2,2013-09-24 08:34:00,
2013-09-24 04:39:00,47.8,46.4,30.05,NW,320,0.0,0.0,95,0.00,,,0.00,WUHU216DAVISVP2,2013-09-24 08:39:00,
2013-09-24 04:44:00,47.8,46.4,30.05,NW,320,0.0,0.0,95,0.00,,,0.00,WUHU216DAVISVP2,2013-09-24 08:44:00,
2013-09-24 04:49:00,47.7,46.3,30.05,NW,320,0.0,0.0,95,0.00,,,0.00,WUHU216DAVISVP2,2013-09-24 08:49:00,
2013-09-24 04:54:00,47.7,46.3,30.05,NW,320,0.0,0.0,95,0.00,,,0.00,WUHU216DAVISVP2,2013-09-24 08:54:00,
2013-09-24 04:59:00,47.6,46.2,30.05,NW,320,0.0,0.0,95,0.00,,,0.00,WUHU216DAVISVP2,2013-09-24 08:59:00,
2013-09-24 05:04:00,47.6,46.2,30.05,NW,320,0.0,0.0,95,0.00,,,0.00,WUHU216DAVISVP2,2013-09-24 09:04:00,
2013-09-24 05:09:00,47.6,46.2,30.05,NW,320,0.0,0.0,95,0.00,,,0.00,WUHU216DAVISVP2,2013-09-24 09:09:00,
2013-09-24 05:14:00,47.5,46.1,30.05,NW,320,0.0,0.0,95,0.00,,,0.00,WUHU216DAVISVP2,2013-09-24 09:14:00,
2013-09-24 05:19:00,47.5,46.1,30.05,NW,320,0.0,0.0,95,0.00,,,0.00,WUHU216DAVISVP2,2013-09-24 09:19:00,
2013-09-24 05:24:00,47.5,46.1,30.05,NW,320,0.0,0.0,95,0.00,,,0.00,WUHU216DAVISVP2,2013-09-24 09:24:00,
2013-09-24 05:29:00,47.6,46.2,30.05,NW,320,0.0,0.0,95,0.00,,,0.00,WUHU216DAVISVP2,2013-09-24 09:29:00,
2013-09-24 05:34:00,47.5,46.1,30.05,NW,320,0.0,0.0,95,0.00,,,0.00,WUHU216DAVISVP2,2013-09-24 09:34:00,
2013-09-24 05:39:00,47.5,46.1,30.05,NW,320,0.0,0.0,95,0.00,,,0.00,WUHU216DAVISVP2,2013-09-24 09:39:00,
2013-09-24 05:44:00,47.6,46.5,30.05,NW,320,0.0,0.0,96,0.00,,,0.00,WUHU216DAVISVP2,2013-09-24 09:44:00,
2013-09-24 05:49:00,47.8,46.7,30.05,NW,320,0.0,0.0,96,0.00,,,0.00,WUHU216DAVISVP2,2013-09-24 09:49:00,
2013-09-24 05:54:00,48.0,46.9,30.05,NW,320,0.0,1.0,96,0.00,,,0.00,WUHU216DAVISVP2,2013-09-24 09:54:00,
2013-09-24 05:59:00,48.2,47.1,30.05,NW,320,0.0,1.0,96,0.00,,,0.00,WUHU216DAVISVP2,2013-09-24 09:59:00,
2013-09-24 06:04:00,48.2,47.1,30.05,NW,320,0.0,1.0,96,0.00,,,0.00,WUHU216DAVISVP2,2013-09-24 10:04:00,
2013-09-24 06:09:00,48.2,47.1,30.05,NW,320,0.0,1.0,96,0.00,,,0.00,WUHU216DAVISVP2,2013-09-24 10:09:00,
2013-09-24 06:14:00,48.2,47.1,30.05,NW,320,1.0,1.0,96,0.00,,,0.00,WUHU216DAVISVP2,2013-09-24 10:14:00,
2013-09-24 06:19:00,48.2,47.1,30.06,NW,320,0.0,1.0,96,0.00,,,0.00,WUHU216DAVISVP2,2013-09-24 10:19:00,
2013-09-24 06:24:00,48.1,47.0,30.06,NW,320,0.0,1.0,96,0.00,,,0.00,WUHU216DAVISVP2,2013-09-24 10:24:00,
2013-09-24 06:29:00,48.0,46.9,30.06,NW,320,0.0,1.0,96,0.00,,,0.00,WUHU216DAVISVP2,2013-09-24 10:29:00,
2013-09-24 06:34:00,47.8,46.4,30.06,NW,320,0.0,1.0,95,0.00,,,0.00,WUHU216DAVISVP2,2013-09-24 10:34:00,
2013-09-24 06:39:00,47.5,46.1,30.06,NW,320,0.0,1.0,95,0.00,,,0.00,WUHU216DAVISVP2,2013-09-24 10:39:00,
2013-09-24 06:44:00,47.3,45.9,30.06,NW,320,0.0,1.0,95,0.00,,,0.00,WUHU216DAVISVP2,2013-09-24 10:44:00,
2013-09-24 06:49:00,47.2,45.8,30.06,NW,320,0.0,1.0,95,0.00,,,0.00,WUHU216DAVISVP2,2013-09-24 10:49:00,
2013-09-24 06:54:00,47.2,45.8,30.06,NW,320,0.0,1.0,95,0.00,,,0.00,WUHU216DAVISVP2,2013-09-24 10:54:00,
2013-09-24 06:59:00,47.2,45.8,30.06,NW,320,0.0,1.0,95,0.00,,,0.00,WUHU216DAVISVP2,2013-09-24 10:59:00,
2013-09-24 07:04:00,47.2,45.8,30.06,NW,320,0.0,1.0,95,0.00,,,0.00,WUHU216DAVISVP2,2013-09-24 11:04:00,
2013-09-24 07:09:00,47.2,46.1,30.07,NW,320,0.0,0.0,96,0.00,,,0.00,WUHU216DAVISVP2,2013-09-24 11:09:00,
2013-09-24 07:14:00,47.3,46.2,30.07,NW,320,0.0,0.0,96,0.00,,,0.00,WUHU216DAVISVP2,2013-09-24 11:14:00,
2013-09-24 07:19:00,47.3,46.2,30.07,NW,320,0.0,0.0,96,0.00,,,0.00,WUHU216DAVISVP2,2013-09-24 11:19:00,
2013-09-24 07:24:00,47.2,46.1,30.07,NW,320,0.0,0.0,96,0.00,,,0.00,WUHU216DAVISVP2,2013-09-24 11:24:00,
2013-09-24 07:29:00,47.2,45.8,30.07,NW,320,0.0,1.0,95,0.00,,,0.00,WUHU216DAVISVP2,2013-09-24 11:29:00,
2013-09-24 07:34:00,47.2,45.8,30.07,NW,320,0.0,1.0,95,0.00,,,0.00,WUHU216DAVISVP2,2013-09-24 11:34:00,
2013-09-24 07:39:00,47.2,46.1,30.07,NW,320,0.0,1.0,96,0.00,,,0.00,WUHU216DAVISVP2,2013-09-24 11:39:00,
2013-09-24 07:44:00,47.4,46.3,30.07,NW,321,0.0,1.0,96,0.00,,,0.00,WUHU216DAVISVP2,2013-09-24 11:44:00,
2013-09-24 07:49:00,47.6,46.5,30.07,NW,320,0.0,1.0,96,0.00,,,0.00,WUHU216DAVISVP2,2013-09-24 11:49:00,
2013-09-24 07:54:00,47.9,46.8,30.07,North,4,2.0,4.0,96,0.00,,,0.00,WUHU216DAVISVP2,2013-09-24 11:54:00,
2013-09-24 07:59:00,48.5,47.1,30.07,North,354,0.0,4.0,95,0.00,,,0.00,WUHU216DAVISVP2,2013-09-24 11:59:00,
2013-09-24 08:04:00,49.1,47.1,30.07,WNW,299,2.0,4.0,93,0.00,,,0.00,WUHU216DAVISVP2,2013-09-24 12:04:00,
2013-09-24 08:09:00,49.7,47.1,30.07,NNW,332,2.0,4.0,91,0.00,,,0.00,WUHU216DAVISVP2,2013-09-24 12:09:00,
2013-09-24 08:14:00,50.4,47.2,30.07,NNW,327,4.0,6.0,89,0.00,,,0.00,WUHU216DAVISVP2,2013-09-24 12:14:00,
2013-09-24 08:19:00,51.2,47.4,30.07,NW,307,1.0,7.0,87,0.00,,,0.00,WUHU216DAVISVP2,2013-09-24 12:19:00,
2013-09-24 08:24:00,51.6,47.2,30.07,NNW,338,1.0,7.0,85,0.00,,,0.00,WUHU216DAVISVP2,2013-09-24 12:24:00,
2013-09-24 08:29:00,51.9,47.5,30.07,North,359,2.0,7.0,85,0.00,,,0.00,WUHU216DAVISVP2,2013-09-24 12:29:00,
2013-09-24 08:34:00,52.3,47.9,30.08,NW,326,1.0,7.0,85,0.00,,,0.00,WUHU216DAVISVP2,2013-09-24 12:34:00,
2013-09-24 08:39:00,52.5,47.8,30.08,NNW,336,2.0,5.0,84,0.00,,,0.00,WUHU216DAVISVP2,2013-09-24 12:39:00,
2013-09-24 08:44:00,52.8,47.8,30.08,NNW,328,3.0,5.0,83,0.00,,,0.00,WUHU216DAVISVP2,2013-09-24 12:44:00,
2013-09-24 08:49:00,53.1,48.1,30.08,North,354,1.0,5.0,83,0.00,,,0.00,WUHU216DAVISVP2,2013-09-24 12:49:00,
2013-09-24 08:54:00,53.4,48.1,30.07,NNE,29,1.0,5.0,82,0.00,,,0.00,WUHU216DAVISVP2,2013-09-24 12:54:00,
2013-09-24 08:59:00,53.7,48.0,30.07,NNE,14,0.0,5.0,81,0.00,,,0.00,WUHU216DAVISVP2,2013-09-24 12:59:00,
2013-09-24 09:04:00,54.0,48.3,30.07,SW,233,1.0,5.0,81,0.00,,,0.00,WUHU216DAVISVP2,2013-09-24 13:04:00,
2013-09-24 09:09:00,54.5,48.8,30.07,NNW,327,2.0,5.0,81,0.00,,,0.00,WUHU216DAVISVP2,2013-09-24 13:09:00,
2013-09-24 09:14:00,54.7,48.0,30.07,NW,309,0.0,6.0,78,0.00,,,0.00,WUHU216DAVISVP2,2013-09-24 13:14:00,
2013-09-24 09:19:00,55.0,48.3,30.08,North,349,1.0,6.0,78,0.00,,,0.00,WUHU216DAVISVP2,2013-09-24 13:19:00,
2013-09-24 09:24:00,55.3,48.3,30.07,NNE,27,0.0,6.0,77,0.00,,,0.00,WUHU216DAVISVP2,2013-09-24 13:24:00,
2013-09-24 09:29:00,55.7,48.3,30.07,NW,323,2.0,6.0,76,0.00,,,0.00,WUHU216DAVISVP2,2013-09-24 13:29:00,
2013-09-24 09:34:00,56.0,48.3,30.07,NNE,14,1.0,6.0,75,0.00,,,0.00,WUHU216DAVISVP2,2013-09-24 13:34:00,
2013-09-24 09:39:00,56.2,47.8,30.07,North,349,6.0,7.0,73,0.00,,,0.00,WUHU216DAVISVP2,2013-09-24 13:39:00,
2013-09-24 09:44:00,56.4,48.0,30.07,North,8,2.0,7.0,73,0.00,,,0.00,WUHU216DAVISVP2,2013-09-24 13:44:00,
2013-09-24 09:49:00,56.7,48.6,30.07,NNE,29,2.0,7.0,74,0.00,,,0.00,WUHU216DAVISVP2,2013-09-24 13:49:00,
2013-09-24 09:54:00,57.0,48.2,30.07,ENE,66,2.0,7.0,72,0.00,,,0.00,WUHU216DAVISVP2,2013-09-24 13:54:00,
2013-09-24 09:59:00,57.2,48.0,30.07,NW,322,1.0,7.0,71,0.00,,,0.00,WUHU216DAVISVP2,2013-09-24 13:59:00,
2013-09-24 10:04:00,57.5,47.9,30.07,NW,316,2.0,5.0,70,0.00,,,0.00,WUHU216DAVISVP2,2013-09-24 14:04:00,
2013-09-24 10:09:00,57.9,47.5,30.08,NNW,332,2.0,5.0,68,0.00,,,0.00,WUHU216DAVISVP2,2013-09-24 14:09:00,
2013-09-24 10:14:00,58.3,48.3,30.07,NNW,343,3.0,5.0,69,0.00,,,0.00,WUHU216DAVISVP2,2013-09-24 14:14:00,
2013-09-24 10:19:00,58.5,47.7,30.07,North,350,4.0,7.0,67,0.00,,,0.00,WUHU216DAVISVP2,2013-09-24 14:19:00,
2013-09-24 10:24:00,58.4,47.2,30.07,NNW,329,0.0,7.0,66,0.00,,,0.00,WUHU216DAVISVP2,2013-09-24 14:24:00,
2013-09-24 10:29:00,58.5,47.7,30.07,NNW,335,0.0,7.0,67,0.00,,,0.00,WUHU216DAVISVP2,2013-09-24 14:29:00,
2013-09-24 10:34:00,58.8,47.2,30.07,North,359,3.0,7.0,65,0.00,,,0.00,WUHU216DAVISVP2,2013-09-24 14:34:00,
2013-09-24 10:39:00,59.3,48.1,30.06,NNW,335,2.0,6.0,66,0.00,,,0.00,WUHU216DAVISVP2,2013-09-24 14:39:00,
2013-09-24 10:44:00,59.9,48.3,30.06,WNW,285,4.0,7.0,65,0.00,,,0.00,WUHU216DAVISVP2,2013-09-24 14:44:00,
2013-09-24 10:49:00,60.5,48.8,30.06,SW,218,2.0,7.0,65,0.00,,,0.00,WUHU216DAVISVP2,2013-09-24 14:49:00,
2013-09-24 10:54:00,61.6,48.6,30.06,NNW,342,3.0,7.0,62,0.00,,,0.00,WUHU216DAVISVP2,2013-09-24 14:54:00,
2013-09-24 10:59:00,60.7,46.4,30.06,WNW,301,2.0,7.0,59,0.00,,,0.00,WUHU216DAVISVP2,2013-09-24 14:59:00,
2013-09-24 11:04:00,60.3,46.5,30.06,North,349,0.0,5.0,60,0.00,,,0.00,WUHU216DAVISVP2,2013-09-24 15:04:00,
2013-09-24 11:09:00,61.0,48.0,30.06,North,349,0.0,5.0,62,0.00,,,0.00,WUHU216DAVISVP2,2013-09-24 15:09:00,
2013-09-24 11:14:00,62.5,48.6,30.05,NW,310,4.0,4.0,60,0.00,,,0.00,WUHU216DAVISVP2,2013-09-24 15:14:00,
2013-09-24 11:19:00,62.5,47.6,30.05,NNW,330,2.0,5.0,58,0.00,,,0.00,WUHU216DAVISVP2,2013-09-24 15:19:00,
2013-09-24 11:24:00,63.6,48.2,30.05,SW,226,0.0,5.0,57,0.00,,,0.00,WUHU216DAVISVP2,2013-09-24 15:24:00,
2013-09-24 11:29:00,64.7,47.8,30.05,SW,214,1.0,5.0,54,0.00,,,0.00,WUHU216DAVISVP2,2013-09-24 15:29:00,
2013-09-24 11:34:00,64.8,48.4,30.04,SW,226,3.0,4.0,55,0.00,,,0.00,WUHU216DAVISVP2,2013-09-24 15:34:00,
2013-09-24 11:39:00,65.3,48.3,30.04,NW,324,0.0,4.0,54,0.00,,,0.00,WUHU216DAVISVP2,2013-09-24 15:39:00,
2013-09-24 11:44:00,65.1,47.6,30.04,NNW,332,0.0,4.0,53,0.00,,,0.00,WUHU216DAVISVP2,2013-09-24 15:44:00,
2013-09-24 11:49:00,66.2,49.2,30.04,SSW,204,3.0,5.0,54,0.00,,,0.00,WUHU216DAVISVP2,2013-09-24 15:49:00,
2013-09-24 11:54:00,67.1,47.9,30.04,North,4,0.0,5.0,50,0.00,,,0.00,WUHU216DAVISVP2,2013-09-24 15:54:00,
2013-09-24 11:59:00,67.7,49.0,30.04,NNW,335,0.0,5.0,51,0.00,,,0.00,WUHU216DAVISVP2,2013-09-24 15:59:00,
2013-09-24 12:04:00,67.1,47.9,30.04,WNW,291,3.0,6.0,50,0.00,,,0.00,WUHU216DAVISVP2,2013-09-24 16:04:00,
2013-09-24 12:09:00,65.9,47.3,30.03,NNW,332,3.0,6.0,51,0.00,,,0.00,WUHU216DAVISVP2,2013-09-24 16:09:00,
2013-09-24 12:14:00,65.9,48.4,30.03,SSW,193,0.0,6.0,53,0.00,,,0.00,WUHU216DAVISVP2,2013-09-24 16:14:00,
2013-09-24 12:19:00,67.6,48.9,30.03,South,188,1.0,6.0,51,0.00,,,0.00,WUHU216DAVISVP2,2013-09-24 16:19:00,
2013-09-24 12:24:00,68.2,48.9,30.03,South,191,1.0,5.0,50,0.00,,,0.00,WUHU216DAVISVP2,2013-09-24 16:24:00,
2013-09-24 12:29:00,68.4,49.1,30.02,SW,225,0.0,5.0,50,0.00,,,0.00,WUHU216DAVISVP2,2013-09-24 16:29:00,
2013-09-24 12:34:00,68.5,48.6,30.02,WNW,300,3.0,5.0,49,0.00,,,0.00,WUHU216DAVISVP2,2013-09-24 16:34:00,
2013-09-24 12:39:00,68.3,48.4,30.01,SSW,202,0.0,5.0,49,0.00,,,0.00,WUHU216DAVISVP2,2013-09-24 16:39:00,
2013-09-24 12:44:00,68.1,49.4,30.01,NW,326,1.0,6.0,51,0.00,,,0.00,WUHU216DAVISVP2,2013-09-24 16:44:00,
2013-09-24 12:49:00,68.2,49.4,30.01,WSW,258,0.0,6.0,51,0.00,,,0.00,WUHU216DAVISVP2,2013-09-24 16:49:00,
2013-09-24 12:54:00,69.2,49.8,30.00,North,8,1.0,6.0,50,0.00,,,0.00,WUHU216DAVISVP2,2013-09-24 16:54:00,
2013-09-24 12:59:00,69.9,49.3,30.00,North,354,4.0,8.0,48,0.00,,,0.00,WUHU216DAVISVP2,2013-09-24 16:59:00,
2013-09-24 13:04:00,68.6,48.1,30.00,NNW,334,3.0,8.0,48,0.00,,,0.00,WUHU216DAVISVP2,2013-09-24 17:04:00,
2013-09-24 13:09:00,68.0,48.2,29.99,WNW,291,4.0,8.0,49,0.00,,,0.00,WUHU216DAVISVP2,2013-09-24 17:09:00,
2013-09-24 13:14:00,67.7,48.4,29.99,NNW,337,8.0,8.0,50,0.00,,,0.00,WUHU216DAVISVP2,2013-09-24 17:14:00,
2013-09-24 13:19:00,67.7,49.0,29.99,NNW,335,1.0,8.0,51,0.00,,,0.00,WUHU216DAVISVP2,2013-09-24 17:19:00,
2013-09-24 13:24:00,68.0,48.7,29.98,WNW,297,1.0,8.0,50,0.00,,,0.00,WUHU216DAVISVP2,2013-09-24 17:24:00,
2013-09-24 13:29:00,69.3,49.9,29.98,SSW,207,1.0,8.0,50,0.00,,,0.00,WUHU216DAVISVP2,2013-09-24 17:29:00,
2013-09-24 13:34:00,70.5,48.7,29.98,ENE,60,3.0,8.0,46,0.00,,,0.00,WUHU216DAVISVP2,2013-09-24 17:34:00,
2013-09-24 13:39:00,69.6,48.5,29.97,NW,311,1.0,8.0,47,0.00,,,0.00,WUHU216DAVISVP2,2013-09-24 17:39:00,
2013-09-24 13:44:00,69.8,48.7,29.97,NW,318,1.0,6.0,47,0.00,,,0.00,WUHU216DAVISVP2,2013-09-24 17:44:00,
2013-09-24 13:49:00,69.9,48.2,29.97,WNW,302,1.0,6.0,46,0.00,,,0.00,WUHU216DAVISVP2,2013-09-24 17:49:00,
2013-09-24 13:54:00,69.9,48.2,29.97,NW,309,5.0,7.0,46,0.00,,,0.00,WUHU216DAVISVP2,2013-09-24 17:54:00,
2013-09-24 13:59:00,69.5,48.4,29.97,SSW,210,0.0,7.0,47,0.00,,,0.00,WUHU216DAVISVP2,2013-09-24 17:59:00,
2013-09-24 14:04:00,70.1,48.9,29.96,NNE,12,1.0,7.0,47,0.00,,,0.00,WUHU216DAVISVP2,2013-09-24 18:04:00,
2013-09-24 14:09:00,70.5,48.1,29.96,North,4,2.0,7.0,45,0.00,,,0.00,WUHU216DAVISVP2,2013-09-24 18:09:00,
2013-09-24 14:14:00,70.4,48.6,29.96,NNW,340,6.0,6.0,46,0.00,,,0.00,WUHU216DAVISVP2,2013-09-24 18:14:00,
2013-09-24 14:19:00,70.7,49.5,29.95,NNW,339,0.0,6.0,47,0.00,,,0.00,WUHU216DAVISVP2,2013-09-24 18:19:00,
2013-09-24 14:24:00,71.3,48.8,29.95,North,4,3.0,7.0,45,0.00,,,0.00,WUHU216DAVISVP2,2013-09-24 18:24:00,
2013-09-24 14:29:00,71.2,49.9,29.95,NNW,338,1.0,7.0,47,0.00,,,0.00,WUHU216DAVISVP2,2013-09-24 18:29:00,
2013-09-24 14:34:00,71.5,49.0,29.95,NNW,336,2.0,7.0,45,0.00,,,0.00,WUHU216DAVISVP2,2013-09-24 18:34:00,
2013-09-24 14:39:00,71.5,50.8,29.94,West,280,1.0,7.0,48,0.00,,,0.00,WUHU216DAVISVP2,2013-09-24 18:39:00,
2013-09-24 14:44:00,71.5,48.4,29.94,West,279,1.0,6.0,44,0.00,,,0.00,WUHU216DAVISVP2,2013-09-24 18:44:00,
2013-09-24 14:49:00,71.4,49.5,29.94,SSW,197,3.0,5.0,46,0.00,,,0.00,WUHU216DAVISVP2,2013-09-24 18:49:00,
2013-09-24 14:54:00,72.3,48.5,29.94,SSW,195,0.0,5.0,43,0.00,,,0.00,WUHU216DAVISVP2,2013-09-24 18:54:00,
2013-09-24 14:59:00,72.8,50.2,29.94,NW,314,2.0,5.0,45,0.00,,,0.00,WUHU216DAVISVP2,2013-09-24 18:59:00,
2013-09-24 15:04:00,73.1,49.9,29.93,SW,216,4.0,5.0,44,0.00,,,0.00,WUHU216DAVISVP2,2013-09-24 19:04:00,
2013-09-24 15:09:00,73.6,49.1,29.93,NW,317,0.0,5.0,42,0.00,,,0.00,WUHU216DAVISVP2,2013-09-24 19:09:00,
2013-09-24 15:14:00,73.9,48.7,29.93,SW,231,1.0,5.0,41,0.00,,,0.00,WUHU216DAVISVP2,2013-09-24 19:14:00,
2013-09-24 15:19:00,74.0,50.0,29.93,West,272,0.0,5.0,43,0.00,,,0.00,WUHU216DAVISVP2,2013-09-24 19:19:00,
2013-09-24 15:24:00,74.2,48.9,29.92,SE,141,0.0,5.0,41,0.00,,,0.00,WUHU216DAVISVP2,2013-09-24 19:24:00,
2013-09-24 15:29:00,73.8,49.2,29.92,SSE,156,2.0,4.0,42,0.00,,,0.00,WUHU216DAVISVP2,2013-09-24 19:29:00,
2013-09-24 15:34:00,74.1,48.8,29.92,SW,215,0.0,4.0,41,0.00,,,0.00,WUHU216DAVISVP2,2013-09-24 19:34:00,
2013-09-24 15:39:00,73.5,48.3,29.92,NW,311,1.0,5.0,41,0.00,,,0.00,WUHU216DAVISVP2,2013-09-24 19:39:00,
2013-09-24 15:44:00,73.2,49.3,29.92,NNW,330,1.0,5.0,43,0.00,,,0.00,WUHU216DAVISVP2,2013-09-24 19:44:00,
2013-09-24 15:49:00,72.9,48.4,29.92,North,359,1.0,7.0,42,0.00,,,0.00,WUHU216DAVISVP2,2013-09-24 19:49:00,
2013-09-24 15:54:00,72.7,48.2,29.92,SSW,193,0.0,7.0,42,0.00,,,0.00,WUHU216DAVISVP2,2013-09-24 19:54:00,
2013-09-24 15:59:00,72.5,48.7,29.92,SW,216,2.0,7.0,43,0.00,,,0.00,WUHU216DAVISVP2,2013-09-24 19:59:00,
2013-09-24 16:04:00,72.6,48.8,29.91,WNW,300,2.0,7.0,43,0.00,,,0.00,WUHU216DAVISVP2,2013-09-24 20:04:00,
2013-09-24 16:09:00,72.6,49.4,29.91,WSW,241,1.0,5.0,44,0.00,,,0.00,WUHU216DAVISVP2,2013-09-24 20:09:00,
2013-09-24 16:14:00,72.5,48.7,29.91,NNW,330,0.0,5.0,43,0.00,,,0.00,WUHU216DAVISVP2,2013-09-24 20:14:00,
2013-09-24 16:19:00,72.3,48.5,29.91,NNW,335,2.0,5.0,43,0.00,,,0.00,WUHU216DAVISVP2,2013-09-24 20:19:00,
2013-09-24 16:24:00,72.0,48.9,29.91,West,267,5.0,5.0,44,0.00,,,0.00,WUHU216DAVISVP2,2013-09-24 20:24:00,
2013-09-24 16:29:00,71.9,48.1,29.91,West,260,0.0,5.0,43,0.00,,,0.00,WUHU216DAVISVP2,2013-09-24 20:29:00,
2013-09-24 16:34:00,71.7,47.9,29.91,SW,214,0.0,5.0,43,0.00,,,0.00,WUHU216DAVISVP2,2013-09-24 20:34:00,
2013-09-24 16:39:00,71.7,49.2,29.91,NNW,332,2.0,5.0,45,0.00,,,0.00,WUHU216DAVISVP2,2013-09-24 20:39:00,
2013-09-24 16:44:00,71.7,47.9,29.91,NW,324,2.0,3.0,43,0.00,,,0.00,WUHU216DAVISVP2,2013-09-24 20:44:00,
2013-09-24 16:49:00,71.7,47.9,29.91,SSW,194,2.0,3.0,43,0.00,,,0.00,WUHU216DAVISVP2,2013-09-24 20:49:00,
2013-09-24 16:54:00,71.8,48.0,29.90,SSW,212,0.0,3.0,43,0.00,,,0.00,WUHU216DAVISVP2,2013-09-24 20:54:00,
2013-09-24 16:59:00,71.9,49.4,29.91,NW,304,2.0,3.0,45,0.00,,,0.00,WUHU216DAVISVP2,2013-09-24 20:59:00,
2013-09-24 17:04:00,71.8,49.3,29.91,NW,325,2.0,3.0,45,0.00,,,0.00,WUHU216DAVISVP2,2013-09-24 21:04:00,
2013-09-24 17:09:00,71.7,49.2,29.90,SW,218,1.0,3.0,45,0.00,,,0.00,WUHU216DAVISVP2,2013-09-24 21:09:00,
2013-09-24 17:14:00,71.9,49.4,29.90,SW,218,0.0,3.0,45,0.00,,,0.00,WUHU216DAVISVP2,2013-09-24 21:14:00,
2013-09-24 17:19:00,72.0,49.5,29.90,WNW,293,0.0,3.0,45,0.00,,,0.00,WUHU216DAVISVP2,2013-09-24 21:19:00,
2013-09-24 17:24:00,71.9,50.0,29.90,NW,321,0.0,3.0,46,0.00,,,0.00,WUHU216DAVISVP2,2013-09-24 21:24:00,
2013-09-24 17:29:00,71.7,49.8,29.90,North,354,0.0,3.0,46,0.00,,,0.00,WUHU216DAVISVP2,2013-09-24 21:29:00,
2013-09-24 17:34:00,71.9,50.0,29.90,North,349,1.0,3.0,46,0.00,,,0.00,WUHU216DAVISVP2,2013-09-24 21:34:00,
2013-09-24 17:39:00,71.9,49.4,29.89,North,354,0.0,3.0,45,0.00,,,0.00,WUHU216DAVISVP2,2013-09-24 21:39:00,
2013-09-24 17:44:00,71.7,51.0,29.89,North,354,0.0,3.0,48,0.00,,,0.00,WUHU216DAVISVP2,2013-09-24 21:44:00,
2013-09-24 17:49:00,71.6,49.7,29.90,WNW,286,0.0,2.0,46,0.00,,,0.00,WUHU216DAVISVP2,2013-09-24 21:49:00,
2013-09-24 17:54:00,71.4,50.1,29.90,WSW,253,0.0,2.0,47,0.00,,,0.00,WUHU216DAVISVP2,2013-09-24 21:54:00,
2013-09-24 17:59:00,71.3,50.0,29.89,WSW,253,0.0,2.0,47,0.00,,,0.00,WUHU216DAVISVP2,2013-09-24 21:59:00,
2013-09-24 18:04:00,71.1,49.9,29.89,WSW,256,0.0,2.0,47,0.00,,,0.00,WUHU216DAVISVP2,2013-09-24 22:04:00,
2013-09-24 18:09:00,70.9,49.7,29.90,WSW,254,0.0,2.0,47,0.00,,,0.00,WUHU216DAVISVP2,2013-09-24 22:09:00,
2013-09-24 18:14:00,70.7,50.1,29.90,WSW,254,0.0,2.0,48,0.00,,,0.00,WUHU216DAVISVP2,2013-09-24 22:14:00,
2013-09-24 18:19:00,70.4,50.4,29.90,WSW,254,0.0,1.0,49,0.00,,,0.00,WUHU216DAVISVP2,2013-09-24 22:19:00,
2013-09-24 18:24:00,70.2,50.7,29.90,WSW,254,0.0,1.0,50,0.00,,,0.00,WUHU216DAVISVP2,2013-09-24 22:24:00,
2013-09-24 18:29:00,70.0,50.6,29.90,WSW,254,0.0,1.0,50,0.00,,,0.00,WUHU216DAVISVP2,2013-09-24 22:29:00,
2013-09-24 18:34:00,69.7,50.3,29.90,WSW,254,0.0,1.0,50,0.00,,,0.00,WUHU216DAVISVP2,2013-09-24 22:34:00,
2013-09-24 18:39:00,69.5,50.6,29.90,WSW,254,0.0,1.0,51,0.00,,,0.00,WUHU216DAVISVP2,2013-09-24 22:39:00,
2013-09-24 18:44:00,69.2,50.9,29.90,WSW,254,0.0,1.0,52,0.00,,,0.00,WUHU216DAVISVP2,2013-09-24 22:44:00,
2013-09-24 18:49:00,68.8,50.5,29.90,WSW,254,0.0,1.0,52,0.00,,,0.00,WUHU216DAVISVP2,2013-09-24 22:49:00,
2013-09-24 18:54:00,68.4,50.6,29.90,WSW,254,0.0,0.0,53,0.00,,,0.00,WUHU216DAVISVP2,2013-09-24 22:54:00,
2013-09-24 18:59:00,68.1,51.3,29.91,WSW,254,0.0,0.0,55,0.00,,,0.00,WUHU216DAVISVP2,2013-09-24 22:59:00,
2013-09-24 19:04:00,67.7,51.4,29.91,WSW,254,0.0,0.0,56,0.00,,,0.00,WUHU216DAVISVP2,2013-09-24 23:04:00,
2013-09-24 19:09:00,67.4,52.6,29.91,WSW,254,0.0,0.0,59,0.00,,,0.00,WUHU216DAVISVP2,2013-09-24 23:09:00,
2013-09-24 19:14:00,66.9,53.5,29.90,WSW,254,0.0,0.0,62,0.00,,,0.00,WUHU216DAVISVP2,2013-09-24 23:14:00,
2013-09-24 19:19:00,66.5,53.5,29.90,WSW,254,0.0,0.0,63,0.00,,,0.00,WUHU216DAVISVP2,2013-09-24 23:19:00,
2013-09-24 19:24:00,65.9,52.9,29.90,WSW,254,0.0,0.0,63,0.00,,,0.00,WUHU216DAVISVP2,2013-09-24 23:24:00,
2013-09-24 19:29:00,65.3,52.8,29.90,WSW,254,0.0,0.0,64,0.00,,,0.00,WUHU216DAVISVP2,2013-09-24 23:29:00,
2013-09-24 19:34:00,64.8,52.8,29.91,WSW,254,0.0,0.0,65,0.00,,,0.00,WUHU216DAVISVP2,2013-09-24 23:34:00,
2013-09-24 19:39:00,64.3,52.7,29.90,WSW,254,0.0,0.0,66,0.00,,,0.00,WUHU216DAVISVP2,2013-09-24 23:39:00,
2013-09-24 19:44:00,63.8,52.6,29.91,WSW,254,0.0,0.0,67,0.00,,,0.00,WUHU216DAVISVP2,2013-09-24 23:44:00,
2013-09-24 19:50:00,63.3,52.7,29.91,WSW,254,0.0,0.0,68,0.00,,,0.00,WUHU216DAVISVP2,2013-09-24 23:50:00,
2013-09-24 19:55:00,62.9,52.6,29.91,WSW,254,0.0,0.0,69,0.00,,,0.00,WUHU216DAVISVP2,2013-09-24 23:55:00,
2013-09-24 20:00:00,62.6,52.7,29.90,WSW,254,0.0,0.0,70,0.00,,,0.00,WUHU216DAVISVP2,2013-09-25 00:00:00,
2013-09-24 20:05:00,62.2,52.7,29.91,WSW,254,0.0,0.0,71,0.00,,,0.00,WUHU216DAVISVP2,2013-09-25 00:05:00,
2013-09-24 20:10:00,61.9,53.1,29.91,WSW,254,0.0,0.0,73,0.00,,,0.00,WUHU216DAVISVP2,2013-09-25 00:10:00,
2013-09-24 20:15:00,61.6,53.2,29.91,WSW,254,0.0,0.0,74,0.00,,,0.00,WUHU216DAVISVP2,2013-09-25 00:15:00,
2013-09-24 20:20:00,61.3,53.7,29.91,WSW,254,0.0,0.0,76,0.00,,,0.00,WUHU216DAVISVP2,2013-09-25 00:20:00,
2013-09-24 20:25:00,61.0,53.7,29.91,WSW,254,0.0,0.0,77,0.00,,,0.00,WUHU216DAVISVP2,2013-09-25 00:25:00,
2013-09-24 20:30:00,60.6,53.7,29.91,WSW,254,0.0,0.0,78,0.00,,,0.00,WUHU216DAVISVP2,2013-09-25 00:30:00,
2013-09-24 20:35:00,60.4,53.5,29.91,WSW,254,0.0,0.0,78,0.00,,,0.00,WUHU216DAVISVP2,2013-09-25 00:35:00,
2013-09-24 20:40:00,60.0,53.1,29.91,WSW,254,0.0,0.0,78,0.00,,,0.00,WUHU216DAVISVP2,2013-09-25 00:40:00,
2013-09-24 20:45:00,59.8,53.3,29.91,WSW,254,0.0,0.0,79,0.00,,,0.00,WUHU216DAVISVP2,2013-09-25 00:45:00,
2013-09-24 20:50:00,59.5,53.3,29.91,WSW,254,0.0,0.0,80,0.00,,,0.00,WUHU216DAVISVP2,2013-09-25 00:50:00,
2013-09-24 20:55:00,59.4,53.6,29.91,WSW,254,0.0,0.0,81,0.00,,,0.00,WUHU216DAVISVP2,2013-09-25 00:55:00,
2013-09-24 21:00:00,59.2,53.4,29.92,WSW,254,0.0,1.0,81,0.00,,,0.00,WUHU216DAVISVP2,2013-09-25 01:00:00,
2013-09-24 21:05:00,59.1,53.6,29.91,WSW,254,0.0,1.0,82,0.00,,,0.00,WUHU216DAVISVP2,2013-09-25 01:05:00,
2013-09-24 21:10:00,58.9,53.4,29.91,WSW,254,0.0,1.0,82,0.00,,,0.00,WUHU216DAVISVP2,2013-09-25 01:10:00,
2013-09-24 21:15:00,58.7,53.6,29.91,WSW,254,0.0,1.0,83,0.00,,,0.00,WUHU216DAVISVP2,2013-09-25 01:15:00,
2013-09-24 21:20:00,58.5,53.4,29.91,WSW,254,0.0,1.0,83,0.00,,,0.00,WUHU216DAVISVP2,2013-09-25 01:20:00,
2013-09-24 21:25:00,58.4,53.3,29.91,WSW,254,0.0,0.0,83,0.00,,,0.00,WUHU216DAVISVP2,2013-09-25 01:25:00,
2013-09-24 21:30:00,58.2,53.1,29.91,WSW,254,0.0,0.0,83,0.00,,,0.00,WUHU216DAVISVP2,2013-09-25 01:30:00,
2013-09-24 21:35:00,58.0,52.9,29.91,WSW,254,0.0,0.0,83,0.00,,,0.00,WUHU216DAVISVP2,2013-09-25 01:35:00,
2013-09-24 21:40:00,57.9,52.8,29.91,WSW,254,0.0,0.0,83,0.00,,,0.00,WUHU216DAVISVP2,2013-09-25 01:40:00,
2013-09-24 21:45:00,57.8,53.0,29.91,WSW,254,0.0,0.0,84,0.00,,,0.00,WUHU216DAVISVP2,2013-09-25 01:45:00,
2013-09-24 21:50:00,57.7,53.2,29.91,WSW,254,0.0,0.0,85,0.00,,,0.00,WUHU216DAVISVP2,2013-09-25 01:50:00,
2013-09-24 21:55:00,57.5,53.0,29.91,WSW,254,0.0,0.0,85,0.00,,,0.00,WUHU216DAVISVP2,2013-09-25 01:55:00,
2013-09-24 22:00:00,57.3,53.1,29.91,WSW,254,0.0,0.0,86,0.00,,,0.00,WUHU216DAVISVP2,2013-09-25 02:00:00,
2013-09-24 22:05:00,57.1,53.6,29.91,WSW,254,0.0,0.0,88,0.00,,,0.00,WUHU216DAVISVP2,2013-09-25 02:05:00,
2013-09-24 22:10:00,56.9,53.4,29.91,WSW,254,0.0,0.0,88,0.00,,,0.00,WUHU216DAVISVP2,2013-09-25 02:10:00,
2013-09-24 22:15:00,56.8,53.3,29.91,WSW,254,0.0,0.0,88,0.00,,,0.00,WUHU216DAVISVP2,2013-09-25 02:15:00,
2013-09-24 22:20:00,56.6,53.4,29.91,WSW,254,0.0,0.0,89,0.00,,,0.00,WUHU216DAVISVP2,2013-09-25 02:20:00,
2013-09-24 22:25:00,56.5,53.3,29.90,WSW,254,0.0,0.0,89,0.00,,,0.00,WUHU216DAVISVP2,2013-09-25 02:25:00,
2013-09-24 22:30:00,56.4,53.5,29.90,WSW,254,0.0,0.0,90,0.00,,,0.00,WUHU216DAVISVP2,2013-09-25 02:30:00,
2013-09-24 22:35:00,56.4,53.5,29.90,WSW,254,0.0,0.0,90,0.00,,,0.00,WUHU216DAVISVP2,2013-09-25 02:35:00,
2013-09-24 22:40:00,56.3,53.4,29.90,WSW,254,0.0,0.0,90,0.00,,,0.00,WUHU216DAVISVP2,2013-09-25 02:40:00,
2013-09-24 22:45:00,56.2,53.3,29.90,WSW,254,0.0,1.0,90,0.00,,,0.00,WUHU216DAVISVP2,2013-09-25 02:45:00,
2013-09-24 22:50:00,55.9,52.7,29.90,WSW,254,0.0,1.0,89,0.00,,,0.00,WUHU216DAVISVP2,2013-09-25 02:50:00,
2013-09-24 22:55:00,55.7,52.8,29.91,WSW,254,0.0,1.0,90,0.00,,,0.00,WUHU216DAVISVP2,2013-09-25 02:55:00,
2013-09-24 23:00:00,55.5,52.6,29.91,WSW,254,0.0,1.0,90,0.00,,,0.00,WUHU216DAVISVP2,2013-09-25 03:00:00,
2013-09-24 23:05:00,55.4,52.8,29.91,WSW,254,0.0,1.0,91,0.00,,,0.00,WUHU216DAVISVP2,2013-09-25 03:05:00,
2013-09-24 23:10:00,55.2,52.6,29.90,WSW,254,0.0,0.0,91,0.00,,,0.00,WUHU216DAVISVP2,2013-09-25 03:10:00,
2013-09-24 23:15:00,55.1,52.5,29.90,WSW,254,0.0,0.0,91,0.00,,,0.00,WUHU216DAVISVP2,2013-09-25 03:15:00,
2013-09-24 23:20:00,55.0,52.4,29.91,WSW,254,0.0,0.0,91,0.00,,,0.00,WUHU216DAVISVP2,2013-09-25 03:20:00,
2013-09-24 23:25:00,54.9,52.6,29.91,WSW,254,0.0,1.0,92,0.00,,,0.00,WUHU216DAVISVP2,2013-09-25 03:25:00,
2013-09-24 23:30:00,54.6,52.0,29.91,WSW,254,0.0,1.0,91,0.00,,,0.00,WUHU216DAVISVP2,2013-09-25 03:30:00,
2013-09-24 23:35:00,54.4,51.8,29.91,WSW,254,0.0,1.0,91,0.00,,,0.00,WUHU216DAVISVP2,2013-09-25 03:35:00,
2013-09-24 23:40:00,54.2,51.9,29.91,WSW,254,0.0,1.0,92,0.00,,,0.00,WUHU216DAVISVP2,2013-09-25 03:40:00,
2013-09-24 23:45:00,54.0,51.7,29.91,WSW,254,0.0,0.0,92,0.00,,,0.00,WUHU216DAVISVP2,2013-09-25 03:45:00,
2013-09-24 23:50:00,53.9,51.6,29.92,WSW,254,0.0,0.0,92,0.00,,,0.00,WUHU216DAVISVP2,2013-09-25 03:50:00,
2013-09-24 23:55:00,53.7,51.4,29.92,WSW,254,0.0,0.0,92,0.00,,,0.00,WUHU216DAVISVP2,2013-09-25 03:55:00,